FW7738 Weather Reports


time (UTC)temp
F
wind
direction
speed
knots
gust
knots
rain 1hr
in
rain 24hr
in
rain mn
in
humidity
%
barometer
mb
20260509164030 65 132 3.5 7.0 0.00 0.59 0.59 77 1009.7
20260509163026 65 131 5.2 8.7 0.00 0.59 0.59 78 1009.8
20260509162021 65 92 2.6 8.7 0.00 0.59 0.59 74 1009.7
20260509161016 65 99 3.5 7.0 0.00 0.59 0.59 74 1009.9
20260509160032 65 87 2.6 7.0 0.00 0.59 0.59 75 1009.8
20260509155047 66 103 4.3 7.8 0.00 0.59 0.59 75 1010.0
20260509154023 65 79 1.7 5.2 0.00 0.59 0.59 77 1010.0
20260509153018 65 81 1.7 7.0 0.00 0.59 0.59 77 1010.1
20260509152034 65 78 1.7 6.1 0.00 0.59 0.59 77 1010.1
20260509151029 64 71 2.6 6.1 0.00 0.59 0.59 79 1009.9
20260509150025 64 61 1.7 7.8 0.00 0.59 0.59 80 1009.9
20260509145020 64 56 2.6 9.6 0.00 0.59 0.59 80 1010.1
20260509144055 64 47 1.7 6.1 0.00 0.59 0.59 79 1010.0
20260509143031 63 43 1.7 5.2 0.00 0.59 0.59 80 1010.0
20260509142026 63 54 1.7 6.1 0.00 0.59 0.59 83 1010.3
20260509141022 62 21 0.9 1.7 0.00 0.59 0.59 89 1010.3
20260509140017 60 40 2.6 6.1 0.00 0.59 0.59 92 1010.2
20260509135033 61 31 0.9 2.6 0.00 0.59 0.59 94 1010.2
20260509134048 61 291 0.9 2.6 0.01 0.59 0.59 94 1010.3
20260509133023 61 260 0.9 2.6 0.02 0.59 0.59 95 1010.2
20260509132019 60 61 2.6 7.8 0.02 0.59 0.59 95 1009.0
20260509131034 60 62 2.6 6.1 0.04 0.59 0.59 95 1009.3
20260509130030 60 49 2.6 7.0 0.05 0.59 0.59 95 1010.0
20260509125025 60 15 0.9 2.6 0.06 0.59 0.59 95 1010.7
20260509124020 60 0.0 0.0 0.08 0.58 0.58 95 1011.0
20260509123015 60 287 0.9 1.7 0.08 0.57 0.57 95 1011.3
20260509122031 60 288 0.9 1.7 0.09 0.57 0.57 95 1011.3
20260509121026 60 273 0.9 2.6 0.09 0.56 0.56 95 1011.5
20260509120041 59 269 0.9 1.7 0.09 0.54 0.54 95 1011.7
20260509115017 59 261 1.7 2.6 0.10 0.52 0.52 95 1011.5
20260509114052 59 263 2.6 5.2 0.10 0.50 0.50 94 1011.5
20260509113028 59 263 1.7 3.5 0.11 0.49 0.49 94 1011.4
20260509112023 59 261 2.6 5.2 0.10 0.48 0.48 94 1011.1
20260509111018 60 265 1.7 3.5 0.10 0.46 0.46 94 1011.0
20260509110034 60 319 0.9 2.6 0.12 0.44 0.44 94 1010.6
20260509105029 60 290 0.9 1.7 0.13 0.43 0.43 93 1010.7
20260509104024 59 292 0.9 1.7 0.13 0.41 0.41 93 1010.9
20260509103020 59 295 0.9 1.7 0.14 0.39 0.39 93 1010.7
20260509102035 59 33 0.9 3.5 0.15 0.37 0.37 93 1010.3
20260509101031 59 335 1.7 3.5 0.18 0.36 0.36 93 1010.3
20260509100025 59 1 2.6 5.2 0.17 0.33 0.33 93 1010.0
20260509095021 59 350 0.0 0.9 0.17 0.30 0.30 92 1010.3
20260509094036 59 352 0.9 2.6 0.18 0.28 0.28 92 1010.1
20260509093032 59 36 1.7 3.5 0.19 0.24 0.24 92 1009.8
20260509092048 59 21 4.3 7.0 0.19 0.22 0.22 92 1009.9
20260509091023 59 22 2.6 5.2 0.18 0.19 0.19 91 1010.0
20260509090138 59 20 3.5 6.1 0.16 0.16 0.16 90 1010.2
20260509085114 60 329 1.7 3.5 0.13 0.13 0.13 89 1010.6
20260509084029 60 343 2.6 3.5 0.09 0.09 0.09 87 1010.8
20260509083024 61 20 1.7 3.5 0.05 0.05 0.05 85 1010.7
20260509082020 61 48 1.7 3.5 0.03 0.03 0.03 85 1010.5
20260509081015 61 0 2.6 3.5 0.01 0.01 0.01 84 1010.6
20260509080031 61 27 1.7 3.5 0.00 0.00 0.00 82 1010.4
20260509075026 61 293 1.7 2.6 0.00 0.00 0.00 82 1010.7
20260509074022 61 311 0.9 1.7 0.00 0.00 0.00 81 1010.7
20260509073017 62 0.0 0.0 0.00 0.00 0.00 81 1010.8
20260509072033 62 256 0.0 0.9 0.00 0.00 0.00 80 1010.9
20260509071028 62 242 0.9 1.7 0.00 0.00 0.00 80 1011.0
20260509070023 61 252 0.9 1.7 0.00 0.00 0.00 81 1010.5
20260509065019 61 0.0 0.0 0.00 0.00 0.00 81 1009.9
20260509064034 61 2 1.7 3.5 0.00 0.00 0.00 82 1009.5
20260509063029 61 353 3.5 7.0 0.00 0.00 0.00 82 1009.3
20260509062025 61 8 2.6 5.2 0.00 0.00 0.00 83 1009.3
20260509061020 61 12 5.2 9.6 0.00 0.00 0.00 83 1009.2
20260509060016 61 30 0.9 2.6 0.00 0.00 0.00 82 1010.2
20260509055031 61 320 1.7 2.6 0.00 0.00 0.00 83 1010.7
20260509054027 61 331 1.7 3.5 0.00 0.00 0.00 83 1010.5
20260509053022 61 12 2.6 3.5 0.00 0.00 0.00 83 1010.2
20260509052017 61 14 3.5 6.1 0.00 0.00 0.00 83 1010.1
20260509051034 61 7 3.5 6.1 0.00 0.00 0.00 83 1010.3
20260509050029 61 6 1.7 3.5 0.00 0.00 0.00 83 1010.3
20260509045024 61 23 3.5 7.0 0.00 0.00 0.00 83 1010.0
20260509044020 61 20 3.5 6.1 0.00 0.00 0.00 83 1010.2
20260509043015 61 25 1.7 5.2 0.00 0.00 0.00 84 1009.8
20260509042031 61 31 0.9 2.6 0.00 0.00 0.00 83 1010.2
20260509041046 61 25 0.9 2.6 0.00 0.00 0.00 84 1010.2
20260509040042 61 8 0.9 2.6 0.00 0.00 0.00 84 1010.2
20260509035017 61 25 0.9 2.6 0.00 0.00 0.00 83 1010.3
20260509034033 60 15 0.9 1.7 0.00 0.00 0.00 83 1010.3
20260509033028 60 1 1.7 2.6 0.00 0.00 0.00 82 1010.3
20260509032023 61 352 1.7 3.5 0.00 0.00 0.00 81 1010.5
20260509031019 61 20 1.7 3.5 0.00 0.00 0.00 81 1010.3
20260509030034 61 21 2.6 7.0 0.00 0.00 0.00 81 1010.3
20260509025029 60 18 2.6 6.1 0.00 0.00 0.00 82 1010.5
20260509024044 60 12 2.6 5.2 0.00 0.00 0.00 82 1010.5
20260509023040 60 17 1.7 2.6 0.00 0.00 0.00 82 1010.6
20260509022015 60 355 1.7 1.7 0.00 0.00 0.00 81 1010.6
20260509021031 60 347 1.7 2.6 0.00 0.00 0.00 82 1010.8
20260509020026 60 359 1.7 2.6 0.00 0.00 0.00 83 1010.7
20260509015022 60 6 0.9 2.6 0.00 0.00 0.00 83 1010.8
20260509014016 60 16 0.0 0.9 0.00 0.00 0.00 83 1010.9
20260509013032 60 23 0.9 1.7 0.00 0.00 0.00 82 1011.1
20260509012128 61 23 1.7 3.5 0.00 0.00 0.00 81 1011.0
20260509011023 61 26 2.6 5.2 0.00 0.00 0.00 81 1011.2
20260509010018 61 20 3.5 6.1 0.00 0.00 0.00 82 1011.4
20260509005033 61 21 3.5 5.2 0.00 0.00 0.00 83 1011.5
20260509004029 61 36 1.7 5.2 0.00 0.00 0.00 84 1011.6
20260509003024 61 33 1.7 5.2 0.00 0.00 0.00 85 1011.8
20260509002020 61 21 2.6 5.2 0.00 0.00 0.00 85 1012.0
20260509001035 61 21 2.6 5.2 0.00 0.00 0.00 85 1011.8
20260509000051 61 20 1.7 3.5 0.00 0.00 0.00 85 1011.9
20260508235026 61 22 0.9 3.5 0.00 0.00 0.00 85 1012.1
20260508234021 61 23 0.9 2.6 0.00 0.00 0.00 85 1012.1
20260508233017 61 20 2.6 5.2 0.00 0.00 0.00 85 1012.0
20260508232032 61 29 1.7 5.2 0.00 0.00 0.00 85 1012.1
20260508231028 61 28 2.6 6.1 0.00 0.00 0.00 85 1012.1
20260508230023 61 17 3.5 7.0 0.00 0.00 0.00 86 1012.2
20260508225018 61 23 2.6 5.2 0.00 0.00 0.00 86 1012.2
20260508224033 62 16 2.6 5.2 0.00 0.00 0.00 86 1012.3
20260508223029 62 25 1.7 3.5 0.00 0.00 0.00 86 1012.7
20260508222023 62 29 0.0 1.7 0.00 0.00 0.00 86 1012.6
20260508221039 62 21 1.7 2.6 0.00 0.00 0.00 86 1012.6
20260508220054 62 1 0.9 1.7 0.00 0.00 0.00 86 1012.7
20260508215030 62 10 0.9 2.6 0.00 0.00 0.00 86 1012.6
20260508214026 62 1 0.9 1.7 0.00 0.00 0.00 85 1012.7
20260508213021 62 48 0.0 1.7 0.00 0.00 0.00 85 1012.6
20260508212016 62 70 0.0 0.9 0.00 0.00 0.00 85 1012.6
20260508211032 62 67 0.0 0.9 0.00 0.00 0.00 85 1012.7
20260508210048 62 71 0.0 2.6 0.00 0.00 0.00 85 1012.6
20260508205044 63 77 0.9 1.7 0.00 0.00 0.00 85 1012.6
20260508204020 63 67 0.0 2.6 0.00 0.00 0.00 85 1012.4
20260508203035 62 70 0.9 2.6 0.00 0.00 0.00 85 1012.3
20260508202050 62 84 0.9 3.5 0.00 0.00 0.00 85 1012.4
20260508201025 62 81 0.9 5.2 0.00 0.00 0.00 85 1012.3
20260508200020 62 88 1.7 3.5 0.00 0.00 0.00 85 1012.1
20260508195016 62 92 1.7 2.6 0.00 0.00 0.00 85 1012.0
20260508194031 63 91 1.7 3.5 0.00 0.00 0.00 85 1012.0
20260508193027 63 91 2.6 3.5 0.00 0.00 0.00 85 1011.9
20260508192042 63 96 2.6 5.2 0.00 0.00 0.00 85 1011.6
20260508191038 63 94 3.5 7.0 0.00 0.01 0.00 84 1011.5
20260508190033 63 93 3.5 6.1 0.00 0.04 0.00 84 1011.5
20260508185029 63 89 2.6 6.1 0.00 0.06 0.00 84 1011.4
20260508184024 64 90 4.3 8.7 0.00 0.07 0.00 82 1011.2
20260508183020 64 96 4.3 8.7 0.00 0.09 0.00 81 1011.0
20260508182035 64 90 5.2 12.2 0.00 0.12 0.00 80 1011.0
20260508181030 64 91 6.1 11.3 0.00 0.14 0.00 78 1011.0
20260508180026 65 93 7.0 11.3 0.00 0.21 0.00 77 1011.0
20260508175041 65 83 5.2 11.3 0.00 0.28 0.00 75 1011.0
20260508174016 65 84 4.3 8.7 0.00 0.30 0.00 75 1011.0
20260508173032 65 100 5.2 8.7 0.00 0.32 0.00 73 1011.0
20260508172027 66 116 4.3 7.8 0.00 0.33 0.00 72 1011.0
20260508171043 65 93 6.1 11.3 0.00 0.33 0.00 71 1010.9
20260508170018 65 99 6.1 11.3 0.00 0.33 0.00 71 1010.9
20260508165054 66 104 6.1 9.6 0.00 0.33 0.00 70 1010.9